GW0877 Weather Reports


time (UTC)temp
C
wind
direction
speed
KPH
gust
KPH
rain 1hr
cm
rain 24hr
cm
rain mn
cm
humidity
%
barometer
mb
20260506233029 15 251 12.9 19.3 0.00 0.00 0.00 80 1019.6
20260506231534 15 241 9.7 17.7 0.00 0.00 0.00 76 1019.7
20260506230031 15 226 1.6 17.7 0.00 0.00 0.00 73 1019.9
20260506224530 15 226 11.3 17.7 0.00 0.00 0.00 76 1019.9
20260506223032 16 274 0.0 19.3 0.00 0.00 0.00 75 1019.9
20260506221530 16 229 3.2 14.5 0.00 0.00 0.00 70 1020.0
20260506220030 16 200 3.2 12.9 0.00 0.00 0.00 71 1020.0
20260506214532 16 234 4.8 12.9 0.00 0.00 0.00 73 1020.0
20260506213032 16 179 4.8 8.0 0.00 0.00 0.00 72 1020.0
20260506211532 15 257 6.4 11.3 0.00 0.00 0.00 69 1020.1
20260506210033 16 254 4.8 11.3 0.00 0.00 0.00 70 1020.1
20260506204530 16 251 6.4 11.3 0.00 0.00 0.00 69 1020.1
20260506203038 16 247 4.8 8.0 0.00 0.00 0.00 69 1020.1
20260506201537 16 183 1.6 6.4 0.00 0.00 0.00 66 1020.1
20260506200039 16 173 4.8 9.7 0.00 0.00 0.00 69 1020.0
20260506194531 16 184 1.6 9.7 0.00 0.00 0.00 67 1019.8
20260506193030 17 185 0.0 4.8 0.00 0.00 0.00 62 1019.9
20260506191530 17 199 1.6 9.7 0.00 0.00 0.00 63 1019.9
20260506190037 16 134 1.6 9.7 0.00 0.00 0.00 65 1019.9
20260506184540 17 148 1.6 6.4 0.00 0.00 0.00 62 1019.9
20260506183030 17 117 1.6 8.0 0.00 0.00 0.00 59 1019.9
20260506181530 17 114 1.6 6.4 0.00 0.00 0.00 61 1019.8
20260506180031 17 227 0.0 6.4 0.00 0.00 0.00 61 1019.7
20260506174530 17 182 1.6 6.4 0.00 0.00 0.00 60 1019.5
20260506173035 16 134 3.2 9.7 0.00 0.00 0.00 63 1019.6
20260506171533 16 40 1.6 9.7 0.00 0.00 0.00 62 1019.6
20260506170032 16 0 1.6 6.4 0.00 0.00 0.00 65 1019.6
20260506164530 16 149 1.6 11.3 0.00 0.00 0.00 65 1019.6
20260506163037 15 0 1.6 8.0 0.00 0.00 0.00 69 1019.6
20260506161532 13 234 4.8 8.0 0.00 0.00 0.00 77 1019.7
20260506160032 13 238 4.8 6.4 0.00 0.00 0.00 76 1019.6
20260506154532 14 238 4.8 8.0 0.00 0.00 0.00 75 1019.5
20260506153032 14 253 8.0 12.9 0.00 0.00 0.00 72 1019.5
20260506151532 15 0 0.0 3.2 0.00 0.00 0.00 69 1019.1
20260506150030 15 261 1.6 6.4 0.00 0.00 0.00 70 1019.1
20260506144535 14 311 0.0 4.8 0.00 0.00 0.00 70 1019.1
20260506143037 14 293 0.0 4.8 0.00 0.00 0.00 72 1018.8
20260506141533 13 268 0.0 4.8 0.00 0.00 0.00 75 1018.8
20260506140033 12 0 0.0 4.8 0.00 0.00 0.00 79 1018.6
20260506134532 11 5 0.0 3.2 0.00 0.00 0.00 82 1018.5
20260506133030 11 0 0.0 3.2 0.00 0.00 0.00 84 1018.4
20260506131532 11 311 0.0 3.2 0.00 0.00 0.00 83 1018.3
20260506130035 11 0 0.0 3.2 0.00 0.00 0.00 83 1018.1
20260506124535 11 0 0.0 3.2 0.00 0.00 0.00 83 1018.0
20260506124016 11 0 0.0 3.2 0.00 0.00 0.00 83 1018.0
20260506123516 11 0 0.0 3.2 0.00 0.00 0.00 83 1018.0
20260506123037 11 29 0.0 3.2 0.00 0.00 0.00 83 1017.9
20260506122516 11 0 0.0 4.8 0.00 0.00 0.00 84 1017.9
20260506122016 11 0 0.0 4.8 0.00 0.00 0.00 84 1017.8
20260506121534 11 30 1.6 4.8 0.00 0.00 0.00 84 1017.8
20260506121016 11 0 0.0 4.8 0.00 0.00 0.00 84 1017.7
20260506120517 11 29 0.0 4.8 0.00 0.00 0.00 85 1017.8
20260506120034 11 30 1.6 4.8 0.00 0.00 0.00 85 1017.9
20260506115519 11 27 1.6 4.8 0.00 0.00 0.00 85 1017.9
20260506115017 11 27 0.0 3.2 0.00 0.00 0.00 85 1017.8
20260506114538 11 0 0.0 4.8 0.00 0.00 0.00 86 1017.8
20260506114016 11 0 0.0 4.8 0.00 0.00 0.00 86 1017.7
20260506113516 11 0 0.0 3.2 0.00 0.00 0.00 87 1017.7
20260506113040 11 0 0.0 3.2 0.00 0.00 0.00 87 1017.7
20260506112516 11 0 0.0 3.2 0.00 0.00 0.00 87 1017.6
20260506112016 11 28 0.0 4.8 0.00 0.00 0.00 87 1017.6
20260506111532 11 0 0.0 4.8 0.00 0.00 0.00 88 1017.5
20260506111017 11 28 0.0 4.8 0.00 0.00 0.00 88 1017.5
20260506110517 11 28 1.6 4.8 0.00 0.00 0.00 88 1017.4
20260506110035 11 28 1.6 4.8 0.00 0.00 0.00 88 1017.4
20260506105516 11 0 1.6 4.8 0.00 0.00 0.00 88 1017.3
20260506105019 11 28 1.6 4.8 0.00 0.00 0.00 88 1017.1
20260506104538 12 29 1.6 4.8 0.00 0.00 0.00 88 1017.1
20260506104017 12 30 1.6 4.8 0.00 0.00 0.00 88 1017.1
20260506103517 12 30 3.2 4.8 0.00 0.00 0.00 88 1017.2
20260506103048 12 30 3.2 4.8 0.00 0.00 0.00 88 1017.0
20260506102516 12 32 1.6 4.8 0.00 0.00 0.00 87 1017.1
20260506102016 12 32 1.6 4.8 0.00 0.00 0.00 87 1017.1
20260506101548 12 32 1.6 3.2 0.00 0.00 0.00 87 1017.1
20260506101016 12 32 0.0 1.6 0.00 0.00 0.00 87 1017.1
20260506100516 12 0 0.0 3.2 0.00 0.00 0.00 87 1017.0
20260506100056 12 0 0.0 3.2 0.00 0.00 0.00 87 1017.1
20260506095517 12 32 0.0 3.2 0.00 0.00 0.00 88 1016.9
20260506095022 12 0 0.0 1.6 0.00 0.00 0.00 88 1017.0
20260506094606 12 0 0.0 1.6 0.00 0.00 0.00 87 1016.9
20260506094019 12 0 0.0 0.0 0.00 0.00 0.00 87 1016.7
20260506093514 12 0 0.0 0.0 0.00 0.00 0.00 86 1016.7
20260506093039 12 0 0.0 0.0 0.00 0.00 0.00 86 1016.6
20260506092515 12 0 0.0 1.6 0.00 0.00 0.00 85 1016.7
20260506092016 12 0 0.0 4.8 0.00 0.00 0.00 85 1016.7
20260506091534 12 0 0.0 4.8 0.00 0.00 0.00 84 1016.6
20260506091016 13 33 0.0 3.2 0.00 0.00 0.00 84 1016.6
20260506090515 13 0 0.0 6.4 0.00 0.00 0.00 84 1016.6
20260506090031 13 0 0.0 6.4 0.00 0.00 0.00 84 1016.5
20260506085516 13 0 0.0 1.6 0.00 0.00 0.00 84 1016.5
20260506085016 13 0 0.0 1.6 0.00 0.00 0.00 84 1016.4
20260506084536 13 0 0.0 4.8 0.00 0.00 0.00 85 1016.3
20260506084015 13 33 0.0 4.8 0.00 0.00 0.00 85 1016.2
20260506083515 13 33 1.6 4.8 0.00 0.00 0.00 85 1016.2
20260506083034 13 34 0.0 4.8 0.00 0.00 0.00 85 1016.1
20260506082514 13 170 0.0 4.8 0.00 0.00 0.00 85 1016.2
20260506082014 13 185 1.6 3.2 0.00 0.00 0.00 86 1016.2
20260506081538 13 185 1.6 3.2 0.00 0.00 0.00 85 1016.2
20260506081015 13 185 0.0 3.2 0.00 0.00 0.00 85 1016.2
20260506080516 13 0 0.0 4.8 0.00 0.00 0.00 84 1016.1
20260506073515 13 0 0.0 3.2 0.00 0.00 0.00 83 1015.9
20260506073043 13 0 0.0 0.0 0.00 0.00 0.00 83 1015.9
20260506072515 13 0 0.0 3.2 0.00 0.00 0.00 83 1015.8
20260506072014 13 0 0.0 3.2 0.00 0.00 0.00 83 1015.8
20260506071531 13 195 0.0 1.6 0.00 0.00 0.00 83 1015.7
20260506071018 13 0 0.0 0.0 0.00 0.00 0.00 82 1015.6
20260506070515 13 0 0.0 1.6 0.00 0.00 0.00 82 1015.6
20260506062516 14 0 0.0 3.2 0.00 0.00 0.00 80 1015.1
20260506062017 14 195 0.0 3.2 0.00 0.00 0.00 80 1015.1
20260506061534 14 0 0.0 3.2 0.00 0.00 0.00 80 1015.0
20260506061018 14 0 0.0 0.0 0.00 0.00 0.00 79 1015.2
20260506060518 14 0 0.0 1.6 0.00 0.00 0.00 79 1015.1
20260506051018 15 0 0.0 1.6 0.00 0.00 0.00 78 1014.6
20260506050517 15 0 0.0 1.6 0.00 0.00 0.00 77 1014.7
20260506045017 15 0 0.0 1.6 0.00 0.00 0.00 76 1014.5
20260506044615 15 0 0.0 1.6 0.00 0.00 0.00 76 1014.5
20260506044017 15 0 0.0 1.6 0.00 0.00 0.00 76 1014.2
20260506043517 15 0 0.0 0.0 0.00 0.00 0.00 76 1014.2
20260506043032 16 0 0.0 0.0 0.00 0.00 0.00 76 1014.3
20260506042517 16 0 0.0 1.6 0.00 0.00 0.00 75 1014.2
20260506042021 16 0 0.0 1.6 0.00 0.00 0.00 75 1014.2
20260506041536 16 0 0.0 1.6 0.00 0.00 0.00 75 1014.1
20260506041021 16 0 0.0 0.0 0.00 0.00 0.00 75 1014.1
20260506040517 16 0 0.0 0.0 0.00 0.00 0.00 75 1014.0
20260506040036 16 0 0.0 0.0 0.00 0.00 0.00 75 1014.0
20260506035517 16 0 0.0 1.6 0.00 0.00 0.00 75 1014.0
20260506035017 16 0 0.0 1.6 0.00 0.00 0.00 74 1013.9
20260506034600 16 0 0.0 0.0 0.00 0.00 0.00 74 1013.9
20260506034016 16 0 0.0 0.0 0.00 0.00 0.00 73 1013.8
20260506033516 17 0 0.0 0.0 0.00 0.00 0.00 73 1013.8
20260506033036 17 0 0.0 0.0 0.00 0.00 0.00 72 1013.8
20260506032517 17 0 0.0 0.0 0.00 0.00 0.00 71 1013.7
20260506032019 17 0 0.0 0.0 0.00 0.00 0.00 71 1013.6
20260506031534 17 0 0.0 0.0 0.00 0.00 0.00 71 1013.6
20260506031015 17 0 0.0 0.0 0.00 0.00 0.00 71 1013.7
20260506030515 17 0 0.0 0.0 0.00 0.00 0.00 70 1013.6
20260506030033 17 0 0.0 1.6 0.00 0.00 0.00 70 1013.5
20260506025516 17 0 0.0 1.6 0.00 0.00 0.00 70 1013.6
20260506025015 17 0 0.0 0.0 0.00 0.00 0.00 69 1013.6
20260506024532 17 0 0.0 0.0 0.00 0.00 0.00 69 1013.5
20260506024015 17 0 0.0 1.6 0.00 0.00 0.00 68 1013.4
20260506023516 18 0 0.0 1.6 0.00 0.00 0.00 68 1013.5
20260506023029 18 0 0.0 1.6 0.00 0.00 0.00 68 1013.5
20260506022514 18 0 0.0 0.0 0.00 0.00 0.00 67 1013.5
20260506022012 18 0 0.0 1.6 0.00 0.00 0.00 68 1013.5
20260506021533 18 0 0.0 1.6 0.00 0.00 0.00 67 1013.5
20260506021015 18 0 0.0 1.6 0.00 0.00 0.00 67 1013.5
20260506020514 18 0 0.0 3.2 0.00 0.00 0.00 67 1013.4
20260506020032 18 0 0.0 3.2 0.00 0.00 0.00 67 1013.4
20260506015519 18 0 0.0 1.6 0.00 0.00 0.00 66 1013.3
20260506015016 18 0 0.0 1.6 0.00 0.00 0.00 66 1013.4
20260506014531 18 0 0.0 1.6 0.00 0.00 0.00 66 1013.3
20260506014015 18 0 0.0 3.2 0.00 0.00 0.00 65 1013.3
20260506013515 18 0 0.0 4.8 0.00 0.00 0.00 65 1013.4
20260506013033 18 0 1.6 4.8 0.00 0.00 0.00 65 1013.3
20260506012515 18 0 0.0 0.0 0.00 0.00 0.00 65 1013.3
20260506012014 18 0 0.0 3.2 0.00 0.00 0.00 64 1013.3
20260506011532 18 0 0.0 3.2 0.00 0.00 0.00 64 1013.4
20260506011018 18 294 0.0 3.2 0.00 0.00 0.00 64 1013.3
20260506010515 18 294 0.0 3.2 0.00 0.00 0.00 63 1013.4
20260506010032 19 0 0.0 4.8 0.00 0.00 0.00 63 1013.4
20260506005515 19 294 0.0 4.8 0.00 0.00 0.00 63 1013.4
20260506005014 19 0 0.0 4.8 0.00 0.00 0.00 62 1013.4
20260506004546 19 80 0.0 3.2 0.00 0.00 0.00 62 1013.5
20260506004015 19 0 0.0 3.2 0.00 0.00 0.00 62 1013.5
20260506003516 19 0 0.0 1.6 0.00 0.00 0.00 63 1013.4
20260506003043 20 0 0.0 3.2 0.00 0.00 0.00 62 1013.5
20260506002514 20 0 0.0 3.2 0.00 0.00 0.00 61 1013.5
20260506002012 20 335 0.0 3.2 0.00 0.00 0.00 61 1013.5
20260506001535 20 0 0.0 1.6 0.00 0.00 0.00 61 1013.6
20260506001015 20 0 0.0 1.6 0.00 0.00 0.00 61 1013.7
20260506000519 20 0 0.0 3.2 0.00 0.00 0.00 60 1013.7
20260506000032 20 0 0.0 3.2 0.00 0.00 0.00 60 1013.6
20260505235517 20 345 0.0 3.2 0.00 0.00 0.00 59 1013.7
20260505235017 20 0 0.0 1.6 0.00 0.00 0.00 59 1013.8
20260505234554 20 0 0.0 3.2 0.00 0.00 0.00 59 1013.8
20260505234022 20 0 0.0 3.2 0.00 0.00 0.00 58 1013.8